Regional Weather Roundup
Issued by NWS

Home | Current Version | Previous Version | Text Only | Print | Product List | Glossary Off
Versions: 1 2 3 4 5 6 7 8 9 10 11 12 13 14 15 16 17 18 19 20 21 22 23 24 25 26 27 28 29 30 31 32 33 34 35 36 37 38 39 40 41 42 43 44 45 46 47 48 49 50

000
ASUS45 KBOU 190807
RWRCO

WEATHER ROUNDUP FOR COLORADO
NATIONAL WEATHER SERVICE DENVER/BOULDER CO
100 AM MST FRI DEC 19 2014

NOTE: "FAIR" INDICATES FEW OR NO CLOUDS BELOW 12000 FEET WITH NO
SIGNIFICANT WEATHER AND/OR OBSTRUCTIONS TO VISIBILITY.

COZ001>005-013-030-031-190900-
...NORTHWEST COLORADO...

CITY           SKY/WX    TMP DP  RH WIND       PRES   REMARKS
CRAIG          CLOUDY    23  18  81 CALM      30.18S
HAYDEN         CLOUDY    16  12  86 NE5       30.15F WCI   9
MEEKER         MOCLDY    18  14  84 CALM      30.17F FOG
MOUNT WERNER   NOT AVBL
STEAMBOAT SPGS CLOUDY    17  15  93 CALM      30.15F
WALDEN         PTCLDY     1  -4  78 SE3       30.10F
$$

COZ006>008-011-190900-
...WEST CENTRAL VALLEYS...

CITY           SKY/WX    TMP DP  RH WIND       PRES   REMARKS
GRAND JUNCTION MOCLDY    30  28  92 NE5       30.19F WCI  25
MONTROSE       CLOUDY    32  30  92 CALM      30.20F
EAGLE          CLOUDY    25  23  93 SW6       30.19S WCI  18
RIFLE          CLOUDY    31  27  85 SE7       30.18F WCI  24
DELTA          CLOUDY    33  31  92 CALM      30.20F
NUCLA          NOT AVBL
$$

COZ017>023-064>068-190900-
...SOUTHWEST COLORADO...

CITY           SKY/WX    TMP DP  RH WIND       PRES   REMARKS
DURANGO        PTCLDY    23  20  88 CALM      30.14F
CORTEZ         CLEAR     21  18  88 NE3       30.18F
PAGOSA SPRINGS CLOUDY    24  22  93 CALM      30.14S
TELLURIDE      NOT AVBL
WOLF CREEK PAS PTCLDY     9   9 100 MISG      30.08F
$$

COZ009-010-012-014-032>034-037-058>063-190900-
...CENTRAL COLORADO...

CITY           SKY/WX    TMP DP  RH WIND       PRES   REMARKS
ASPEN          CLOUDY    22  22 100 CALM      30.13F
BUENA VISTA    PTCLDY    18  10  72 W5        30.10S WCI  11
COPPER MTN     CLOUDY    14   9  79 W17       30.06F WCI  -3
BERTHOUD PASS  CLOUDY     5   0  78 MISG      30.03F
COTTONWOOD PAS PTCLDY    23  10  58 W8        30.07F WCI  14
GUNNISON       MOCLDY    10   7  85 CALM      30.18S
KREMMLING      FLURRIES  14  12  92 CALM      30.17F
LEADVILLE      CLOUDY    13   8  81 NE7       30.08F WCI   3
MONARCH PASS   CLOUDY    10   7  85 MISG      30.15F
SALIDA         PTCLDY    22  16  78 CALM      30.18F
SUNLIGHT       LGT SNOW N/A N/A N/A CALM      30.12F
WILKERSON PASS PTCLDY    14   7  73 NW7       30.06F WCI   4
$$

COZ069>075-190900-
...SAN LUIS VALLEY/SANGRE DE CRISTO MOUNTAINS...

CITY           SKY/WX    TMP DP  RH WIND       PRES   REMARKS
ALAMOSA        PTCLDY     8   5  87 CALM      30.12F
LA VETA PASS   CLOUDY    16  12  86 S3        30.07S
SAGUACHE       PTCLDY    21  16  79 NW7       30.12F WCI  13
$$

COZ035-036-038>040-190900-
...NORTHERN COLORADO FRONT RANGE...

CITY           SKY/WX    TMP DP  RH WIND       PRES   REMARKS
DENVER INTL AP MOCLDY    27  24  89 W7        30.07F FOG     WCI  19
DMNS CITY PARK   N/A     26  24  91 CALM      30.07S
AURORA         MOCLDY    27  25  90 SW6       30.07F WCI  21
FRONT RANGE AP CLEAR     30  28  93 SW7       30.07F WCI  23
ERIE MUNI ARPT   N/A     20  19  94 CALM      30.08F
BOULDER MUN AP CLEAR     28  23  80 S5        30.07F WCI  23
CENTENNIAL     PTCLDY    25  23  92 SE3       30.06F FOG
BROOMFIELD     CLEAR     30  27  86 NW10      30.07S WCI  21
FORT COLLINS   CLEAR     25  21  86 CALM      30.09F
LONGMONT       CLEAR     24  22  91 SW5       30.10F WCI  18
$$

COZ041-046-047-076>085-087-088-190900-
...PIKES PEAK/PALMER DIVIDE AND SOUTHERN FOOTHILLS...

CITY           SKY/WX    TMP DP  RH WIND       PRES   REMARKS
COLO. SPRINGS  MOCLDY    24  21  88 NE8       30.09S WCI  15
A. F. ACADEMY  PTCLDY    21  17  86 N6        30.07F WCI  13
ELLICOTT       NOT AVBL
FALCON         PTCLDY    20  19  95 CALM      30.08F
FORT CARSON    CLOUDY    30  22  70 N2        30.08F
LIMON          PTCLDY    17  14  88 N7        30.09F WCI   8
MONUMENT HILL  PTCLDY    23  21  93 SW8       30.05F WCI  14
TRINIDAD       CLOUDY    32  27  81 N6        30.08F WCI  26
$$

COZ042>045-048>051-090-091-190900-
...NORTHEAST COLORADO...

CITY           SKY/WX    TMP DP  RH WIND       PRES   REMARKS
GREELEY ARPT   CLEAR     18  10  73 NW6       30.06F WCI   9
AKRON          CLOUDY    31  19  61 S7        30.07F WCI  24
BURLINGTON     CLEAR     23  19  85 W8        30.10F WCI  14
WRAY           PTCLDY    19  17  90 W7        30.11S WCI  10
STERLING       MOCLDY    14  12  92 W3        30.08F
HOLYOKE        NOT AVBL
FORT MORGAN    NOT AVBL
$$

COZ086-089-092>099-190900-
...SOUTHEAST COLORADO...

CITY           SKY/WX    TMP DP  RH WIND       PRES   REMARKS
PUEBLO         PTCLDY    25  21  85 CALM      30.10F
LA JUNTA       CLOUDY    31  29  92 CALM      30.10F
LAMAR          CLOUDY    25  24  96 CALM      30.10F
SPRINGFIELD      N/A     25  23  92 NW3       30.09F
$$



USA.gov is the U.S. government's official web portal to all federal, state and local government web resources and services.